Flag for Germany Weather past 2 weeks in Garmisch-Partenkirchen, Bavaria, Germany

Now
36 °F

Broken clouds.


Feels Like: 36 °F
Forecast: 18 / 44 °F
Wind: 1 mph from North

Location: Innsbruck-Flughafen

Current Time: Feb 28, 2015 at 8:19:06 AM

Latest Report: Feb 28, 2015 at 7:50 AM


Visibility: 4 mi

Pressure: 30.12 "Hg

Humidity: 93%

Dew point: 34 °F

Location of Garmisch-PartenkirchenLocation

Historic Weather in Garmisch-Partenkirchen — Graph

°F

Garmisch-Partenkirchen temperature yesterday

Maximum temperature yesterday: 41 °F (at 12:20 PM)
Minimum temperature yesterday: 25 °F (at 5:50 AM)
Average temperature yesterday: 33 °F

Past Weeks' High & Low Weather Summary

 TemperatureHumidityPressure
High55 °F (Feb 17, 2:50 PM)100% (Feb 13, 9:20 AM)30.69 "Hg (Feb 13, 9:20 AM)
Low18 °F (Feb 13, 6:20 AM)28% (Feb 20, 2:20 PM)29.50 "Hg (Feb 21, 3:20 PM)
Average36 °F74%30.01 "Hg
* Reported Feb 13 6:20 AM — Feb 28 6:50 AM, Garmisch-Partenkirchen, Weather by CustomWeather, © 2015

Note: Actual official high and low records may vary slightly from our data, if they occured in-between our weather recording intervals... More about our weather records

Advertising

Garmisch-Partenkirchen weather history for previous 24 hours

 ConditionsComfort  
Time TempWeatherWind HumidityBarometerVisibility
6:50 AM
Sat, Feb 28
36 °FLight rain. Fog.1 mph93%30.09 "Hg2 mi
6:20 AM36 °FDrizzle. Fog.1 mph93%30.09 "Hg3 mi
5:50 AM36 °FFog.1 mph93%30.09 "Hg3 mi
5:20 AM36 °FFog.1 mph93%30.07 "Hg3 mi
4:50 AM36 °FDrizzle. Fog.1 mph93%30.07 "Hg3 mi
4:20 AM34 °FDrizzle. Fog.1 mph100%30.07 "Hg3 mi
3:50 AM34 °FLight rain. Fog.1 mph100%30.07 "Hg3 mi
3:20 AM36 °FLight rain. Fog.2 mph93%30.07 "Hg3 mi
2:50 AM36 °FLight rain. Passing clouds.2 mph93%30.07 "Hg4 mi
2:20 AM36 °FLight rain. Fog.2 mph93%30.07 "Hg3 mi
1:50 AM36 °FLight rain. Fog.2 mph93%30.07 "Hg3 mi
1:20 AM36 °FPassing clouds.2 mph93%30.07 "Hg4 mi
12:50 AM36 °FPassing clouds.1 mph93%30.07 "Hg4 mi
12:20 AM36 °FDrizzle. Fog.2 mph93%30.07 "Hg3 mi
11:50 PM
Fri, Feb 27
36 °FSprinkles. Passing clouds.1 mph93%30.04 "Hg4 mi
11:20 PM36 °FSprinkles. Passing clouds.1 mph93%30.04 "Hg3 mi
10:50 PM36 °FLight rain. Partly cloudy.No wind93%30.04 "Hg4 mi
10:20 PM36 °FLight rain. Partly cloudy.1 mph93%30.04 "Hg3 mi
9:50 PM34 °FLight rain. Partly cloudy.3 mph100%30.01 "Hg4 mi
9:20 PM34 °FLight rain. Partly cloudy.2 mph100%30.01 "Hg4 mi
8:50 PM34 °FLight rain. Partly cloudy.No wind100%30.01 "Hg4 mi
8:20 PM34 °FLight rain. Partly cloudy.1 mph100%29.98 "Hg4 mi
7:50 PM34 °FLight rain. Partly cloudy.3 mph100%29.98 "Hg4 mi
7:20 PM34 °FLight rain. Partly cloudy.7 mph100%29.95 "Hg4 mi
6:50 PM34 °FLight rain. Partly cloudy.6 mph100%29.95 "Hg6 mi
6:20 PM36 °FLight rain. Partly cloudy.7 mph93%29.92 "HgN/A
5:50 PM36 °FLight rain. Broken clouds.6 mph93%29.92 "HgN/A
5:20 PM36 °FLight rain. Broken clouds.6 mph93%29.92 "HgN/A
4:50 PM36 °FLight rain. Broken clouds.10 mph93%29.89 "HgN/A
4:20 PM36 °FLight rain. Broken clouds.10 mph100%29.89 "HgN/A
3:50 PM36 °FLight rain. Broken clouds.10 mph100%29.86 "HgN/A
3:20 PM37 °FLight rain. Broken clouds.10 mph93%29.86 "HgN/A
2:50 PM37 °FLight rain. Broken clouds.13 mph87%29.86 "HgN/A
2:20 PM37 °FSprinkles. Broken clouds.16 mph87%29.86 "HgN/A
1:50 PM39 °FBroken clouds.17 mph75%29.86 "HgN/A
1:20 PM39 °FBroken clouds.21 mph70%29.83 "HgN/A
12:50 PM39 °FBroken clouds.17 mph65%29.83 "HgN/A
12:20 PM41 °FPartly sunny.17 mph53%29.83 "HgN/A
11:50 AM39 °FPartly sunny.16 mph52%29.83 "HgN/A
11:20 AM39 °FPartly sunny.14 mph52%29.83 "HgN/A
10:50 AM37 °FPartly sunny.14 mph56%29.83 "HgN/A
10:20 AM39 °FScattered clouds.14 mph48%29.83 "HgN/A
9:50 AM37 °FScattered clouds.8 mph56%29.83 "HgN/A
9:20 AM34 °FScattered clouds.7 mph65%29.83 "HgN/A
8:50 AM30 °FScattered clouds.3 mph75%29.86 "HgN/A
8:20 AM28 °FScattered clouds.2 mph86%29.86 "HgN/A
Weather by CustomWeather, © 2015

See weather overviewHow to use our weather pages